Location: Newark
(41.0833°N, 9.3833°E)
Time: 11:46:27
(UTC+00:00)

Hubble Space Telescope - Pass Details

Date: 12 April 2020
Orbit: 536 x 540 km, 28.5° (Epoch: 01 June)

Event Time Altitude Azimuth Distance (km) Brightness Sun altitude
Rises 18:21:36 0° 239° (WSW) 2,667 5.0 -4.9°
Reaches altitude 10° 18:24:46 10° 214° (SSW) 1,776 3.7 -5.4°
Maximum altitude 18:26:56 14° 182° (S) 1,540 3.0 -5.8°
Drops below altitude 10° 18:29:05 10° 150° (SSE) 1,776 3.0 -6.2°
Enters shadow 18:30:38 - 135° (SE) 2,160 3.3 -6.5°
